Time,TemperatureF,DewpointF,PressureIn,WindDirection,WindDirectionDegrees,WindSpeedMPH,WindSpeedGustMPH,Humidity,HourlyPrecipIn,Conditions,Clouds,dailyrainin,SoftwareType,DateUTC
2013-03-26 00:03:00,47.3,35.3,29.84,NNE,20,1.0,1.0,63,0.00,CLR,CLR,0.00,WeatherDisplay:10.37,2013-03-26 07:03:00,
2013-03-26 00:13:00,47.3,35.7,29.85,NNE,22,0.0,1.0,64,0.00,OVC,OVC,0.00,WeatherDisplay:10.37,2013-03-26 07:13:00,
2013-03-26 00:23:00,47.3,35.7,29.85,North,9,0.0,2.0,64,0.00,OVC,OVC,0.00,WeatherDisplay:10.37,2013-03-26 07:23:00,
2013-03-26 00:33:00,47.3,35.7,29.85,North,360,0.0,2.0,64,0.00,OVC,OVC,0.00,WeatherDisplay:10.37,2013-03-26 07:33:00,
2013-03-26 00:43:00,47.3,35.7,29.85,NNE,20,1.0,2.0,64,0.00,OVC,OVC,0.00,WeatherDisplay:10.37,2013-03-26 07:43:00,
2013-03-26 00:53:00,47.3,36.1,29.84,North,353,0.0,0.0,65,0.00,OVC,OVC,0.00,WeatherDisplay:10.37,2013-03-26 07:53:00,
2013-03-26 01:03:00,47.5,36.3,29.84,North,9,0.0,0.0,65,0.00,OVC,OVC,0.00,WeatherDisplay:10.37,2013-03-26 08:03:00,
2013-03-26 01:08:00,47.5,36.3,29.84,NE,43,0.0,0.0,65,0.00,BKN,BKN,0.00,WeatherDisplay:10.37,2013-03-26 08:08:00,
2013-03-26 01:13:00,47.5,36.3,29.84,NE,47,0.0,0.0,65,0.00,BKN,BKN,0.00,WeatherDisplay:10.37,2013-03-26 08:13:00,
2013-03-26 01:23:00,47.5,36.7,29.84,North,360,0.0,0.0,66,0.00,BKN,BKN,0.00,WeatherDisplay:10.37,2013-03-26 08:23:00,
2013-03-26 01:33:00,47.3,36.5,29.84,NNE,22,0.0,0.0,66,0.00,BKN,BKN,0.00,WeatherDisplay:10.37,2013-03-26 08:33:00,
2013-03-26 01:43:00,46.9,36.2,29.84,NNE,27,1.0,1.0,66,0.00,BKN,BKN,0.00,WeatherDisplay:10.37,2013-03-26 08:43:00,
2013-03-26 01:53:00,46.9,36.5,29.84,NW,326,0.0,0.0,67,0.00,BKN,BKN,0.00,WeatherDisplay:10.37,2013-03-26 08:53:00,
2013-03-26 02:03:00,46.9,36.5,29.84,NNW,339,0.0,0.0,67,0.00,BKN,BKN,0.00,WeatherDisplay:10.37,2013-03-26 09:03:00,
2013-03-26 02:08:00,46.8,36.4,29.84,North,9,0.0,1.0,67,0.00,BKN,BKN,0.00,WeatherDisplay:10.37,2013-03-26 09:08:00,
2013-03-26 02:13:00,46.6,36.2,29.84,NNE,22,0.0,1.0,67,0.00,BKN,BKN,0.00,WeatherDisplay:10.37,2013-03-26 09:13:00,
2013-03-26 02:23:00,46.4,36.4,29.84,North,7,0.0,0.0,68,0.00,BKN,BKN,0.00,WeatherDisplay:10.37,2013-03-26 09:23:00,
2013-03-26 02:33:00,46.4,36.8,29.84,North,0,0.0,0.0,69,0.00,BKN,BKN,0.00,WeatherDisplay:10.37,2013-03-26 09:33:00,
2013-03-26 02:43:00,46.2,36.6,29.84,North,6,0.0,1.0,69,0.00,BKN,BKN,0.00,WeatherDisplay:10.37,2013-03-26 09:43:00,
2013-03-26 02:53:00,46.0,36.4,29.84,North,11,0.0,1.0,69,0.00,BKN,BKN,0.00,WeatherDisplay:10.37,2013-03-26 09:53:00,
2013-03-26 02:58:00,46.0,36.4,29.84,North,360,0.0,0.0,69,0.00,BKN,BKN,0.00,WeatherDisplay:10.37,2013-03-26 09:58:00,
2013-03-26 03:08:00,46.0,36.4,29.84,North,349,0.0,0.0,69,0.00,OVC,OVC,0.00,WeatherDisplay:10.37,2013-03-26 10:08:00,
2013-03-26 03:13:00,45.9,36.3,29.84,North,358,0.0,0.0,69,0.00,OVC,OVC,0.00,WeatherDisplay:10.37,2013-03-26 10:13:00,
2013-03-26 03:23:00,45.9,36.6,29.84,North,360,0.0,0.0,70,0.00,OVC,OVC,0.00,WeatherDisplay:10.37,2013-03-26 10:23:00,
2013-03-26 03:33:00,45.9,36.6,29.84,North,360,0.0,0.0,70,0.00,OVC,OVC,0.00,WeatherDisplay:10.37,2013-03-26 10:33:00,
2013-03-26 03:43:00,45.9,36.6,29.84,North,349,0.0,0.0,70,0.00,OVC,OVC,0.00,WeatherDisplay:10.37,2013-03-26 10:43:00,
2013-03-26 03:53:00,45.9,37.0,29.84,North,353,0.0,0.0,71,0.00,OVC,OVC,0.00,WeatherDisplay:10.37,2013-03-26 10:53:00,
2013-03-26 04:03:00,45.9,37.0,29.84,NNW,338,0.0,0.0,71,0.00,OVC,OVC,0.00,WeatherDisplay:10.37,2013-03-26 11:03:00,
2013-03-26 04:08:00,45.9,36.6,29.84,NNW,338,0.0,0.0,70,0.00,OVC,OVC,0.00,WeatherDisplay:10.37,2013-03-26 11:08:00,
2013-03-26 04:13:00,45.9,36.6,29.84,NNW,338,0.0,0.0,70,0.00,OVC,OVC,0.00,WeatherDisplay:10.37,2013-03-26 11:13:00,
2013-03-26 04:23:00,45.9,36.6,29.84,NNW,338,0.0,0.0,70,0.00,OVC,OVC,0.00,WeatherDisplay:10.37,2013-03-26 11:23:00,
2013-03-26 04:33:00,45.9,36.6,29.84,North,4,0.0,0.0,70,0.00,OVC,OVC,0.00,WeatherDisplay:10.37,2013-03-26 11:33:00,
2013-03-26 04:43:00,45.5,36.3,29.84,NNE,18,0.0,0.0,70,0.00,OVC,OVC,0.00,WeatherDisplay:10.37,2013-03-26 11:43:00,
2013-03-26 04:53:00,45.3,36.1,29.84,NNE,22,0.0,0.0,70,0.00,OVC,OVC,0.00,WeatherDisplay:10.37,2013-03-26 11:53:00,
2013-03-26 05:03:00,45.1,36.3,29.84,NNE,22,0.0,0.0,71,0.00,OVC,OVC,0.00,WeatherDisplay:10.37,2013-03-26 12:03:00,
2013-03-26 05:08:00,45.3,36.5,29.84,North,7,0.0,0.0,71,0.00,OVC,OVC,0.00,WeatherDisplay:10.37,2013-03-26 12:08:00,
2013-03-26 05:13:00,45.3,36.5,29.84,NNW,344,0.0,0.0,71,0.00,OVC,OVC,0.00,WeatherDisplay:10.37,2013-03-26 12:13:00,
2013-03-26 05:23:00,45.3,36.5,29.84,NNW,338,0.0,0.0,71,0.00,OVC,OVC,0.00,WeatherDisplay:10.37,2013-03-26 12:23:00,
2013-03-26 05:33:00,45.5,37.0,29.85,NNW,338,0.0,0.0,72,0.00,OVC,OVC,0.00,WeatherDisplay:10.37,2013-03-26 12:33:00,
2013-03-26 05:43:00,45.5,37.0,29.85,NNW,338,0.0,0.0,72,0.00,OVC,OVC,0.00,WeatherDisplay:10.37,2013-03-26 12:43:00,
2013-03-26 05:53:00,45.5,37.0,29.85,NNW,338,0.0,0.0,72,0.00,OVC,OVC,0.00,WeatherDisplay:10.37,2013-03-26 12:53:00,
2013-03-26 06:03:00,45.7,37.2,29.85,NNW,338,0.0,0.0,72,0.00,OVC,OVC,0.00,WeatherDisplay:10.37,2013-03-26 13:03:00,
2013-03-26 06:08:00,45.7,37.2,29.85,NNW,338,0.0,0.0,72,0.00,OVC,OVC,0.00,WeatherDisplay:10.37,2013-03-26 13:08:00,
2013-03-26 06:13:00,45.7,37.2,29.85,NNW,338,0.0,0.0,72,0.00,OVC,OVC,0.00,WeatherDisplay:10.37,2013-03-26 13:13:00,
2013-03-26 06:23:00,45.9,37.3,29.85,North,350,0.0,0.0,72,0.00,OVC,OVC,0.00,WeatherDisplay:10.37,2013-03-26 13:23:00,
2013-03-26 06:33:00,45.9,37.3,29.86,NNW,340,0.0,0.0,72,0.00,OVC,OVC,0.00,WeatherDisplay:10.37,2013-03-26 13:33:00,
2013-03-26 06:43:00,45.9,37.3,29.86,NNW,338,0.0,0.0,72,0.00,OVC,OVC,0.00,WeatherDisplay:10.37,2013-03-26 13:43:00,
2013-03-26 06:53:00,46.0,37.5,29.86,NNW,338,0.0,0.0,72,0.00,OVC,OVC,0.00,WeatherDisplay:10.37,2013-03-26 13:53:00,
2013-03-26 07:03:00,46.0,37.5,29.86,NNW,338,0.0,0.0,72,0.00,OVC,OVC,0.00,WeatherDisplay:10.37,2013-03-26 14:03:00,
2013-03-26 07:08:00,46.0,37.5,29.86,NNW,338,0.0,0.0,72,0.00,OVC,OVC,0.00,WeatherDisplay:10.37,2013-03-26 14:08:00,
2013-03-26 07:13:00,46.2,37.7,29.86,NNW,338,0.0,0.0,72,0.00,OVC,OVC,0.00,WeatherDisplay:10.37,2013-03-26 14:13:00,
2013-03-26 07:23:00,46.2,37.7,29.86,NNW,338,0.0,0.0,72,0.00,OVC,OVC,0.00,WeatherDisplay:10.37,2013-03-26 14:23:00,
2013-03-26 07:33:00,46.2,37.7,29.87,NNW,338,0.0,0.0,72,0.00,OVC,OVC,0.00,WeatherDisplay:10.37,2013-03-26 14:33:00,
2013-03-26 07:43:00,46.2,37.7,29.87,NNW,338,0.0,0.0,72,0.00,OVC,OVC,0.00,WeatherDisplay:10.37,2013-03-26 14:43:00,
2013-03-26 07:53:00,46.4,37.9,29.87,NNW,338,0.0,0.0,72,0.00,OVC,OVC,0.00,WeatherDisplay:10.37,2013-03-26 14:53:00,
2013-03-26 08:03:00,46.6,38.0,29.87,North,358,0.0,0.0,72,0.00,OVC,OVC,0.00,WeatherDisplay:10.37,2013-03-26 15:03:00,
2013-03-26 08:13:00,46.6,38.0,29.86,North,0,0.0,0.0,72,0.00,OVC,OVC,0.00,WeatherDisplay:10.37,2013-03-26 15:13:00,
2013-03-26 08:23:00,46.8,37.9,29.86,NNE,19,0.0,0.0,71,0.00,OVC,OVC,0.00,WeatherDisplay:10.37,2013-03-26 15:23:00,
2013-03-26 08:33:00,47.1,37.8,29.87,ENE,59,0.0,0.0,70,0.00,OVC,OVC,0.00,WeatherDisplay:10.37,2013-03-26 15:33:00,
2013-03-26 08:43:00,47.5,38.2,29.87,ENE,68,0.0,0.0,70,0.00,OVC,OVC,0.00,WeatherDisplay:10.37,2013-03-26 15:43:00,
2013-03-26 08:53:00,48.0,38.7,29.87,NNE,33,0.0,0.0,70,0.00,OVC,OVC,0.00,WeatherDisplay:10.37,2013-03-26 15:53:00,
2013-03-26 09:03:00,48.4,39.0,29.87,NW,324,0.0,0.0,70,0.00,OVC,OVC,0.00,WeatherDisplay:10.37,2013-03-26 16:03:00,
2013-03-26 09:08:00,48.7,39.4,29.87,North,351,0.0,0.0,70,0.00,OVC,OVC,0.00,WeatherDisplay:10.37,2013-03-26 16:08:00,
2013-03-26 09:13:00,48.9,39.2,29.87,North,358,0.0,0.0,69,0.00,OVC,OVC,0.00,WeatherDisplay:10.37,2013-03-26 16:13:00,
2013-03-26 09:23:00,49.3,39.2,29.87,South,182,0.0,2.0,68,0.00,OVC,OVC,0.00,WeatherDisplay:10.37,2013-03-26 16:23:00,
2013-03-26 09:33:00,50.0,39.8,29.87,SE,142,1.0,3.0,68,0.00,OVC,OVC,0.00,WeatherDisplay:10.37,2013-03-26 16:33:00,
2013-03-26 09:38:00,50.4,39.8,29.87,SE,142,1.0,2.0,67,0.00,OVC,OVC,0.00,WeatherDisplay:10.37,2013-03-26 16:38:00,
2013-03-26 09:48:00,50.9,40.3,29.88,ESE,111,0.0,2.0,67,0.00,OVC,OVC,0.00,WeatherDisplay:10.37,2013-03-26 16:48:00,
2013-03-26 09:53:00,51.1,40.5,29.88,SE,142,1.0,3.0,67,0.00,OVC,OVC,0.00,WeatherDisplay:10.37,2013-03-26 16:53:00,
2013-03-26 10:03:00,51.8,41.2,29.88,South,191,1.0,5.0,67,0.00,OVC,OVC,0.00,WeatherDisplay:10.37,2013-03-26 17:03:00,
2013-03-26 10:08:00,52.2,41.1,29.88,SSW,207,1.0,2.0,66,0.00,OVC,OVC,0.00,WeatherDisplay:10.37,2013-03-26 17:08:00,
2013-03-26 10:13:00,52.3,41.3,29.88,SSW,198,1.0,5.0,66,0.00,OVC,OVC,0.00,WeatherDisplay:10.37,2013-03-26 17:13:00,
2013-03-26 10:23:00,52.7,41.3,29.88,South,169,1.0,3.0,65,0.00,OVC,OVC,0.00,WeatherDisplay:10.37,2013-03-26 17:23:00,
2013-03-26 10:33:00,53.2,41.8,29.88,SSE,147,1.0,3.0,65,0.00,OVC,OVC,0.00,WeatherDisplay:10.37,2013-03-26 17:33:00,
2013-03-26 10:38:00,53.4,41.5,29.88,South,170,1.0,5.0,64,0.00,OVC,OVC,0.00,WeatherDisplay:10.37,2013-03-26 17:38:00,
2013-03-26 10:48:00,53.8,41.9,29.86,SW,225,1.0,5.0,64,0.00,OVC,OVC,0.00,WeatherDisplay:10.37,2013-03-26 17:48:00,
2013-03-26 10:53:00,53.8,41.9,29.86,West,264,1.0,5.0,64,0.00,OVC,OVC,0.00,WeatherDisplay:10.37,2013-03-26 17:53:00,
2013-03-26 11:03:00,54.5,42.2,29.89,SE,140,2.0,3.0,63,0.00,OVC,OVC,0.00,WeatherDisplay:10.37,2013-03-26 18:03:00,
2013-03-26 11:08:00,54.5,41.7,29.89,SSE,163,2.0,5.0,62,0.00,BKN,BKN,0.00,WeatherDisplay:10.37,2013-03-26 18:08:00,
2013-03-26 11:13:00,54.9,42.1,29.89,South,175,2.0,5.0,62,0.00,BKN,BKN,0.00,WeatherDisplay:10.37,2013-03-26 18:13:00,
2013-03-26 11:23:00,55.4,42.6,29.89,SE,131,1.0,4.0,62,0.00,BKN,BKN,0.00,WeatherDisplay:10.37,2013-03-26 18:23:00,
2013-03-26 11:33:00,55.8,42.9,29.89,SSE,154,2.0,5.0,62,0.00,BKN,BKN,0.00,WeatherDisplay:10.37,2013-03-26 18:33:00,
2013-03-26 11:43:00,55.9,42.7,29.90,SE,138,2.0,5.0,61,0.00,BKN,BKN,0.00,WeatherDisplay:10.37,2013-03-26 18:43:00,
2013-03-26 11:53:00,56.5,42.8,29.90,South,177,2.0,4.0,60,0.00,BKN,BKN,0.00,WeatherDisplay:10.37,2013-03-26 18:53:00,
2013-03-26 12:03:00,56.7,42.5,29.89,SE,140,2.0,6.0,59,0.00,BKN,BKN,0.00,WeatherDisplay:10.37,2013-03-26 19:03:00,
2013-03-26 12:08:00,56.8,42.7,29.89,SSE,157,2.0,6.0,59,0.00,OVC,OVC,0.00,WeatherDisplay:10.37,2013-03-26 19:08:00,
2013-03-26 12:13:00,57.0,42.4,29.89,SSE,168,2.0,6.0,58,0.00,OVC,OVC,0.00,WeatherDisplay:10.37,2013-03-26 19:13:00,
2013-03-26 12:23:00,57.4,42.7,29.88,SSE,158,2.0,4.0,58,0.00,OVC,OVC,0.00,WeatherDisplay:10.37,2013-03-26 19:23:00,
2013-03-26 12:33:00,57.6,42.9,29.88,South,191,2.0,6.0,58,0.00,OVC,OVC,0.00,WeatherDisplay:10.37,2013-03-26 19:33:00,
2013-03-26 12:43:00,57.7,42.6,29.88,SSE,149,2.0,4.0,57,0.00,OVC,OVC,0.00,WeatherDisplay:10.37,2013-03-26 19:43:00,
2013-03-26 12:53:00,58.1,43.4,29.88,SE,134,2.0,5.0,58,0.00,OVC,OVC,0.00,WeatherDisplay:10.37,2013-03-26 19:53:00,
2013-03-26 13:03:00,58.1,42.5,29.88,SE,143,2.0,5.0,56,0.00,OVC,OVC,0.00,WeatherDisplay:10.37,2013-03-26 20:03:00,
2013-03-26 13:08:00,58.3,42.6,29.88,SE,133,2.0,4.0,56,0.00,OVC,OVC,0.00,WeatherDisplay:10.37,2013-03-26 20:08:00,
2013-03-26 13:13:00,58.6,42.5,29.88,SE,135,2.0,2.0,55,0.00,OVC,OVC,0.00,WeatherDisplay:10.37,2013-03-26 20:13:00,
2013-03-26 13:23:00,59.0,42.8,29.88,SSE,153,2.0,5.0,55,0.00,OVC,OVC,0.00,WeatherDisplay:10.37,2013-03-26 20:23:00,
2013-03-26 13:33:00,59.0,41.9,29.88,East,88,2.0,4.0,53,0.00,OVC,OVC,0.00,WeatherDisplay:10.37,2013-03-26 20:33:00,
2013-03-26 13:43:00,59.0,41.4,29.87,East,95,2.0,5.0,52,0.00,OVC,OVC,0.00,WeatherDisplay:10.37,2013-03-26 20:43:00,
2013-03-26 13:53:00,59.0,41.4,29.87,East,100,2.0,6.0,52,0.00,OVC,OVC,0.00,WeatherDisplay:10.37,2013-03-26 20:53:00,
2013-03-26 14:03:00,59.0,40.4,29.86,NNE,17,2.0,7.0,50,0.00,OVC,OVC,0.00,WeatherDisplay:10.37,2013-03-26 21:03:00,
2013-03-26 14:08:00,59.2,41.1,29.86,SSW,205,2.0,5.0,51,0.00,BKN,BKN,0.00,WeatherDisplay:10.37,2013-03-26 21:08:00,
2013-03-26 14:13:00,59.2,41.1,29.86,South,177,2.0,5.0,51,0.00,BKN,BKN,0.00,WeatherDisplay:10.37,2013-03-26 21:13:00,
2013-03-26 14:23:00,59.7,41.0,29.87,SW,224,1.0,2.0,50,0.00,BKN,BKN,0.00,WeatherDisplay:10.37,2013-03-26 21:23:00,
2013-03-26 14:33:00,59.7,41.0,29.87,NNE,26,2.0,4.0,50,0.00,BKN,BKN,0.00,WeatherDisplay:10.37,2013-03-26 21:33:00,
2013-03-26 14:43:00,60.1,41.4,29.86,NW,313,2.0,6.0,50,0.00,BKN,BKN,0.00,WeatherDisplay:10.37,2013-03-26 21:43:00,
2013-03-26 14:53:00,60.3,40.5,29.86,NNW,339,2.0,5.0,48,0.00,BKN,BKN,0.00,WeatherDisplay:10.37,2013-03-26 21:53:00,
2013-03-26 15:03:00,60.3,40.5,29.85,WNW,286,2.0,3.0,48,0.00,BKN,BKN,0.00,WeatherDisplay:10.37,2013-03-26 22:03:00,
2013-03-26 15:08:00,60.3,39.9,29.85,WSW,253,2.0,6.0,47,0.00,OVC,OVC,0.00,WeatherDisplay:10.37,2013-03-26 22:08:00,
2013-03-26 15:13:00,60.4,39.5,29.85,NW,309,2.0,6.0,46,0.00,OVC,OVC,0.00,WeatherDisplay:10.37,2013-03-26 22:13:00,
2013-03-26 15:23:00,60.4,40.1,29.85,North,2,2.0,6.0,47,0.00,OVC,OVC,0.00,WeatherDisplay:10.37,2013-03-26 22:23:00,
2013-03-26 15:33:00,60.4,39.5,29.85,West,267,2.0,3.0,46,0.00,OVC,OVC,0.00,WeatherDisplay:10.37,2013-03-26 22:33:00,
2013-03-26 15:43:00,60.6,39.1,29.85,NNE,12,2.0,5.0,45,0.00,OVC,OVC,0.00,WeatherDisplay:10.37,2013-03-26 22:43:00,
2013-03-26 15:53:00,60.8,39.3,29.85,NW,321,1.0,3.0,45,0.00,OVC,OVC,0.00,WeatherDisplay:10.37,2013-03-26 22:53:00,
2013-03-26 16:03:00,61.0,39.5,29.85,WSW,241,2.0,3.0,45,0.00,OVC,OVC,0.00,WeatherDisplay:10.37,2013-03-26 23:03:00,
2013-03-26 16:08:00,61.0,39.5,29.85,SSW,203,2.0,3.0,45,0.00,FEW,FEW,0.00,WeatherDisplay:10.37,2013-03-26 23:08:00,
2013-03-26 16:13:00,61.2,39.1,29.85,SW,220,1.0,5.0,44,0.00,FEW,FEW,0.00,WeatherDisplay:10.37,2013-03-26 23:13:00,
2013-03-26 16:23:00,61.2,39.1,29.85,SSE,150,2.0,6.0,44,0.00,FEW,FEW,0.00,WeatherDisplay:10.37,2013-03-26 23:23:00,
2013-03-26 16:33:00,61.3,39.2,29.85,NNW,348,1.0,1.0,44,0.00,FEW,FEW,0.00,WeatherDisplay:10.37,2013-03-26 23:33:00,
2013-03-26 16:43:00,61.3,39.2,29.84,North,7,2.0,5.0,44,0.00,FEW,FEW,0.00,WeatherDisplay:10.37,2013-03-26 23:43:00,
2013-03-26 16:53:00,61.3,39.2,29.84,NE,35,1.0,3.0,44,0.00,FEW,FEW,0.00,WeatherDisplay:10.37,2013-03-26 23:53:00,
2013-03-26 17:03:00,61.3,39.2,29.83,NNW,341,2.0,5.0,44,0.00,FEW,FEW,0.00,WeatherDisplay:10.37,2013-03-27 00:03:00,
2013-03-26 17:08:00,61.2,39.1,29.83,North,351,2.0,5.0,44,0.00,BKN,BKN,0.00,WeatherDisplay:10.37,2013-03-27 00:08:00,
2013-03-26 17:13:00,61.0,38.9,29.83,North,355,2.0,6.0,44,0.00,BKN,BKN,0.00,WeatherDisplay:10.37,2013-03-27 00:13:00,
2013-03-26 17:23:00,60.6,38.6,29.84,ENE,63,2.0,4.0,44,0.00,BKN,BKN,0.00,WeatherDisplay:10.37,2013-03-27 00:23:00,
2013-03-26 17:33:00,60.4,39.0,29.84,NNE,12,2.0,5.0,45,0.00,BKN,BKN,0.00,WeatherDisplay:10.37,2013-03-27 00:33:00,
2013-03-26 17:43:00,60.3,38.2,29.84,NW,311,2.0,5.0,44,0.00,BKN,BKN,0.00,WeatherDisplay:10.37,2013-03-27 00:43:00,
2013-03-26 17:53:00,59.7,37.8,29.84,ENE,57,2.0,5.0,44,0.00,BKN,BKN,0.00,WeatherDisplay:10.37,2013-03-27 00:53:00,
2013-03-26 18:03:00,59.0,37.7,29.84,ENE,69,2.0,3.0,45,0.00,BKN,BKN,0.00,WeatherDisplay:10.37,2013-03-27 01:03:00,
2013-03-26 18:08:00,59.0,37.7,29.84,ENE,58,2.0,2.0,45,0.00,SCT,SCT,0.00,WeatherDisplay:10.37,2013-03-27 01:08:00,
2013-03-26 18:13:00,59.0,38.2,29.84,NNE,18,1.0,2.0,46,0.00,SCT,SCT,0.00,WeatherDisplay:10.37,2013-03-27 01:13:00,
2013-03-26 18:23:00,58.6,38.5,29.84,NNE,30,2.0,3.0,47,0.00,SCT,SCT,0.00,WeatherDisplay:10.37,2013-03-27 01:23:00,
2013-03-26 18:33:00,58.1,38.5,29.84,North,7,1.0,2.0,48,0.00,SCT,SCT,0.00,WeatherDisplay:10.37,2013-03-27 01:33:00,
2013-03-26 18:43:00,57.9,38.9,29.84,North,356,1.0,2.0,49,0.00,SCT,SCT,0.00,WeatherDisplay:10.37,2013-03-27 01:43:00,
2013-03-26 18:53:00,57.7,39.2,29.84,NNW,336,0.0,2.0,50,0.00,SCT,SCT,0.00,WeatherDisplay:10.37,2013-03-27 01:53:00,
2013-03-26 19:03:00,57.4,39.4,29.84,NNW,331,0.0,1.0,51,0.00,SCT,SCT,0.00,WeatherDisplay:10.37,2013-03-27 02:03:00,
2013-03-26 19:13:00,57.2,40.2,29.84,NW,326,0.0,0.0,53,0.00,CLR,CLR,0.00,WeatherDisplay:10.37,2013-03-27 02:13:00,
2013-03-26 19:23:00,56.7,40.2,29.84,NW,324,0.0,1.0,54,0.00,CLR,CLR,0.00,WeatherDisplay:10.37,2013-03-27 02:23:00,
2013-03-26 19:33:00,56.1,40.2,29.84,NNW,333,0.0,0.0,55,0.00,CLR,CLR,0.00,WeatherDisplay:10.37,2013-03-27 02:33:00,
2013-03-26 19:43:00,55.6,40.1,29.84,NW,304,0.0,2.0,56,0.00,CLR,CLR,0.00,WeatherDisplay:10.37,2013-03-27 02:43:00,
2013-03-26 19:53:00,54.9,40.4,29.84,NNW,331,0.0,0.0,58,0.00,CLR,CLR,0.00,WeatherDisplay:10.37,2013-03-27 02:53:00,
2013-03-26 20:03:00,54.3,40.3,29.84,NW,320,0.0,0.0,59,0.00,CLR,CLR,0.00,WeatherDisplay:10.37,2013-03-27 03:03:00,
2013-03-26 20:08:00,54.0,40.4,29.84,NW,313,0.0,1.0,60,0.00,CLR,CLR,0.00,WeatherDisplay:10.37,2013-03-27 03:08:00,
2013-03-26 20:13:00,53.8,40.2,29.84,NW,311,0.0,1.0,60,0.00,CLR,CLR,0.00,WeatherDisplay:10.37,2013-03-27 03:13:00,
2013-03-26 20:23:00,53.2,40.1,29.84,NW,315,0.0,0.0,61,0.00,CLR,CLR,0.00,WeatherDisplay:10.37,2013-03-27 03:23:00,
2013-03-26 20:33:00,52.7,40.0,29.84,NW,313,0.0,0.0,62,0.00,CLR,CLR,0.00,WeatherDisplay:10.37,2013-03-27 03:33:00,
2013-03-26 20:43:00,52.3,40.1,29.84,WNW,302,0.0,1.0,63,0.00,CLR,CLR,0.00,WeatherDisplay:10.37,2013-03-27 03:43:00,
2013-03-26 20:53:00,52.0,39.8,29.84,NW,320,0.0,0.0,63,0.00,CLR,CLR,0.00,WeatherDisplay:10.37,2013-03-27 03:53:00,
2013-03-26 21:03:00,51.6,39.8,29.85,NW,315,0.0,0.0,64,0.00,CLR,CLR,0.00,WeatherDisplay:10.37,2013-03-27 04:03:00,
2013-03-26 21:13:00,51.3,39.9,29.85,NW,321,0.0,1.0,65,0.00,CLR,CLR,0.00,WeatherDisplay:10.37,2013-03-27 04:13:00,
2013-03-26 21:18:00,51.1,40.1,29.85,NW,322,0.0,0.0,66,0.00,CLR,CLR,0.00,WeatherDisplay:10.37,2013-03-27 04:18:00,
2013-03-26 21:23:00,50.9,39.9,29.85,NW,306,0.0,0.0,66,0.00,CLR,CLR,0.00,WeatherDisplay:10.37,2013-03-27 04:23:00,
2013-03-26 21:33:00,50.7,39.8,29.85,WNW,288,0.0,0.0,66,0.00,CLR,CLR,0.00,WeatherDisplay:10.37,2013-03-27 04:33:00,
2013-03-26 21:38:00,50.5,39.6,29.85,NW,310,0.0,0.0,66,0.00,CLR,CLR,0.00,WeatherDisplay:10.37,2013-03-27 04:38:00,
2013-03-26 21:43:00,50.5,40.0,29.85,NW,315,0.0,0.0,67,0.00,CLR,CLR,0.00,WeatherDisplay:10.37,2013-03-27 04:43:00,
2013-03-26 21:53:00,50.2,39.3,29.85,NW,306,0.0,0.0,66,0.00,CLR,CLR,0.00,WeatherDisplay:10.37,2013-03-27 04:53:00,
2013-03-26 22:03:00,50.0,39.1,29.85,NW,306,0.0,0.0,66,0.00,CLR,CLR,0.00,WeatherDisplay:10.37,2013-03-27 05:03:00,
2013-03-26 22:08:00,49.8,38.5,29.85,NW,306,0.0,1.0,65,0.00,CLR,CLR,0.00,WeatherDisplay:10.37,2013-03-27 05:08:00,
2013-03-26 22:13:00,49.8,38.5,29.85,NW,313,0.0,0.0,65,0.00,CLR,CLR,0.00,WeatherDisplay:10.37,2013-03-27 05:13:00,
2013-03-26 22:23:00,49.6,38.3,29.85,NW,315,0.0,0.0,65,0.00,CLR,CLR,0.00,WeatherDisplay:10.37,2013-03-27 05:23:00,
2013-03-26 22:33:00,49.5,38.6,29.85,NW,310,0.0,0.0,66,0.00,CLR,CLR,0.00,WeatherDisplay:10.37,2013-03-27 05:33:00,
2013-03-26 22:43:00,49.3,38.0,29.85,NW,313,0.0,0.0,65,0.00,CLR,CLR,0.00,WeatherDisplay:10.37,2013-03-27 05:43:00,
2013-03-26 22:53:00,49.1,37.8,29.85,NW,308,0.0,0.0,65,0.00,CLR,CLR,0.00,WeatherDisplay:10.37,2013-03-27 05:53:00,
2013-03-26 23:03:00,48.7,37.9,29.85,NW,315,0.0,0.0,66,0.00,CLR,CLR,0.00,WeatherDisplay:10.37,2013-03-27 06:03:00,
2013-03-26 23:08:00,48.7,37.5,29.85,NW,315,0.0,0.0,65,0.00,CLR,CLR,0.00,WeatherDisplay:10.37,2013-03-27 06:08:00,
2013-03-26 23:13:00,48.4,37.5,29.85,NW,315,0.0,0.0,66,0.00,CLR,CLR,0.00,WeatherDisplay:10.37,2013-03-27 06:13:00,
2013-03-26 23:23:00,48.2,37.8,29.85,NW,315,0.0,0.0,67,0.00,CLR,CLR,0.00,WeatherDisplay:10.37,2013-03-27 06:23:00,
2013-03-26 23:33:00,48.0,37.6,29.85,NW,315,0.0,0.0,67,0.00,CLR,CLR,0.00,WeatherDisplay:10.37,2013-03-27 06:33:00,
2013-03-26 23:43:00,47.8,37.4,29.84,NW,315,0.0,0.0,67,0.00,CLR,CLR,0.00,WeatherDisplay:10.37,2013-03-27 06:43:00,
2013-03-26 23:53:00,47.8,37.8,29.84,NW,315,0.0,0.0,68,0.00,CLR,CLR,0.00,WeatherDisplay:10.37,2013-03-27 06:53:00,
2013-03-26 23:58:00,47.7,38.0,29.84,NW,315,0.0,0.0,69,0.00,CLR,CLR,0.00,WeatherDisplay:10.37,2013-03-27 06:58:00,